VE4GLS Weather Reports


time (UTC)temp
C
wind
direction
speed
KPH
gust
KPH
rain 1hr
cm
rain 24hr
cm
rain mn
cm
humidity
%
barometer
mb
20260906205119 27 149 8.0 11.3 0.00 0.05 0.00 75 1015.4
20260906204539 27 154 4.8 4.8 0.00 0.05 0.00 75 1015.5
20260906203619 28 137 4.8 8.0 0.00 0.05 0.00 74 1015.4
20260906203539 28 148 11.3 11.3 0.00 0.05 0.00 74 1015.4
20260906202541 28 110 1.6 3.2 0.00 0.05 0.00 75 1015.3
20260906202119 28 149 4.8 9.7 0.00 0.05 0.00 74 1015.1
20260906201541 28 151 3.2 8.0 0.00 0.05 0.00 74 1015.2
20260906200619 28 149 9.7 12.9 0.00 0.05 0.00 74 1014.9
20260906200539 28 126 11.3 19.3 0.00 0.05 0.00 74 1014.9
20260906195539 28 127 11.3 16.1 0.00 0.05 0.00 74 1014.8
20260906195119 28 136 9.7 16.1 0.00 0.05 0.00 74 1014.7
20260906194539 28 117 11.3 16.1 0.00 0.05 0.00 74 1014.7
20260906193619 28 110 9.7 11.3 0.00 0.05 0.00 74 1014.6
20260906193541 28 149 12.9 14.5 0.00 0.05 0.00 73 1014.6
20260906192541 28 74 16.1 20.9 0.00 0.05 0.00 73 1014.4
20260906192119 28 88 14.5 19.3 0.00 0.05 0.00 74 1014.5
20260906191539 28 127 16.1 20.9 0.00 0.05 0.00 74 1014.7
20260906190618 28 118 12.9 16.1 0.00 0.05 0.00 73 1015.0
20260906190540 28 86 19.3 19.3 0.00 0.05 0.00 73 1015.0
20260906185539 28 87 11.3 14.5 0.00 0.05 0.00 72 1015.2
20260906185119 28 101 11.3 22.5 0.00 0.05 0.00 73 1015.3
20260906184539 28 97 12.9 16.1 0.00 0.05 0.00 73 1015.4
20260906183619 28 106 19.3 20.9 0.00 0.05 0.00 73 1015.6
20260906183541 27 86 16.1 24.1 0.00 0.05 0.00 73 1015.6
20260906182541 27 92 14.5 12.9 0.00 0.05 0.00 75 1015.7
20260906182119 27 106 8.0 8.0 0.00 0.05 0.00 75 1015.7
20260906181539 27 102 8.0 11.3 0.00 0.05 0.00 73 1015.8
20260906180619 27 87 9.7 11.3 0.00 0.05 0.00 74 1016.1
20260906180539 27 79 12.9 12.9 0.00 0.05 0.00 75 1016.1
20260906175540 27 124 9.7 14.5 0.00 0.05 0.00 75 1016.2
20260906175118 27 99 12.9 14.5 0.00 0.05 0.00 74 1016.3
20260906174540 27 74 8.0 14.5 0.00 0.05 0.00 74 1016.4
20260906173618 27 74 12.9 9.7 0.00 0.05 0.00 74 1016.3
20260906173540 27 95 12.9 16.1 0.00 0.05 0.00 74 1016.3
20260906172539 27 92 16.1 19.3 0.00 0.05 0.00 75 1016.4
20260906172119 27 108 9.7 14.5 0.00 0.05 0.00 76 1016.4
20260906171540 26 78 3.2 4.8 0.00 0.05 0.00 74 1016.6
20260906170619 26 143 1.6 3.2 0.00 0.05 0.00 76 1016.5
20260906170541 26 138 4.8 8.0 0.00 0.05 0.00 76 1016.5
20260906165540 26 120 3.2 8.0 0.00 0.05 0.00 77 1016.6
20260906165118 26 93 11.3 14.5 0.00 0.05 0.00 75 1016.6
20260906164540 26 114 8.0 8.0 0.00 0.05 0.00 76 1016.8
20260906163619 26 120 1.6 14.5 0.00 0.05 0.00 77 1017.0
20260906163539 26 126 1.6 1.6 0.00 0.05 0.00 77 1017.1
20260906162539 25 157 3.2 8.0 0.00 0.05 0.00 80 1017.3
20260906162119 25 102 8.0 9.7 0.00 0.05 0.00 79 1017.4
20260906161541 25 96 9.7 14.5 0.00 0.05 0.00 78 1017.5
20260906160618 25 119 1.6 3.2 0.00 0.05 0.00 81 1017.7
20260906160540 25 131 4.8 8.0 0.00 0.05 0.00 81 1017.7
20260906155540 25 125 8.0 9.7 0.00 0.05 0.00 80 1017.7
20260906155118 25 99 9.7 11.3 0.00 0.05 0.00 79 1017.7
20260906154540 25 102 8.0 12.9 0.00 0.05 0.00 80 1017.7
20260906153619 25 149 1.6 3.2 0.00 0.05 0.00 82 1017.7
20260906153539 24 149 0.0 1.6 0.00 0.05 0.00 81 1017.7
20260906152541 24 217 3.2 3.2 0.00 0.05 0.00 83 1017.7
20260906152119 24 125 3.2 4.8 0.00 0.08 0.00 83 1017.7
20260906151540 23 153 3.2 4.8 0.00 0.08 0.00 84 1017.7
20260906150618 23 183 3.2 8.0 0.00 0.10 0.00 84 1017.8
20260906150540 23 197 4.8 8.0 0.00 0.10 0.00 84 1017.8
20260906145540 23 136 9.7 12.9 0.00 0.10 0.00 86 1017.6
20260906145118 22 134 4.8 8.0 0.00 0.10 0.00 87 1017.5
20260906144540 22 134 8.0 12.9 0.00 0.13 0.00 88 1017.5
20260906143619 22 117 9.7 12.9 0.00 0.13 0.00 89 1017.6
20260906143539 22 116 8.0 12.9 0.00 0.13 0.00 89 1017.6
20260906142540 21 156 1.6 1.6 0.00 0.13 0.00 91 1017.8
20260906142118 21 150 3.2 4.8 0.00 0.13 0.00 92 1017.7
20260906141539 21 129 4.8 8.0 0.00 0.13 0.00 93 1017.7
20260906140619 20 137 3.2 9.7 0.00 0.13 0.00 95 1017.7
20260906140539 20 138 0.0 3.2 0.00 0.13 0.00 95 1017.8
20260906135541 20 131 1.6 8.0 0.05 0.13 0.13 96 1017.9
20260906135118 19 143 8.0 9.7 0.05 0.13 0.13 97 1018.0
20260906134540 19 125 8.0 9.7 0.05 0.13 0.13 97 1017.9
20260906133619 18 116 3.2 4.8 0.05 0.13 0.13 98 1017.7
20260906133539 18 109 3.2 4.8 0.05 0.13 0.13 98 1017.7
20260906132540 18 117 3.2 4.8 0.00 0.08 0.08 99 1017.7
20260906132118 17 127 4.8 4.8 0.00 0.08 0.08 99 1017.7
20260906131540 17 105 4.8 8.0 0.00 0.08 0.08 99 1017.7
20260906130619 17 114 3.2 8.0 0.00 0.08 0.08 99 1017.7
20260906130541 17 108 4.8 8.0 0.00 0.08 0.08 99 1017.7
20260906125541 16 108 4.8 8.0 0.00 0.08 0.08 98 1017.7
20260906125120 16 107 8.0 8.0 0.00 0.08 0.08 98 1017.7
20260906124539 16 95 9.7 11.3 0.00 0.08 0.08 98 1017.8
20260906123619 16 108 4.8 4.8 0.00 0.08 0.08 98 1017.8
20260906123539 16 122 3.2 4.8 0.00 0.08 0.08 98 1017.7
20260906122539 16 121 4.8 4.8 0.00 0.08 0.08 98 1017.7
20260906122119 16 111 4.8 8.0 0.00 0.08 0.08 98 1017.7
20260906121540 16 124 4.8 4.8 0.00 0.08 0.08 98 1017.7
20260906120619 16 100 9.7 11.3 0.00 0.08 0.08 98 1017.7
20260906120539 16 96 9.7 11.3 0.00 0.08 0.08 98 1017.7
20260906115540 16 98 11.3 12.9 0.00 0.08 0.08 98 1017.7
20260906115119 16 98 9.7 11.3 0.00 0.08 0.08 98 1017.7
20260906114539 16 97 9.7 11.3 0.00 0.08 0.08 98 1017.7
20260906113619 16 94 9.7 11.3 0.00 0.08 0.08 98 1017.7
20260906113539 16 97 9.7 11.3 0.00 0.08 0.08 98 1017.7
20260906112539 16 88 8.0 9.7 0.00 0.08 0.08 98 1017.6
20260906112119 16 84 8.0 8.0 0.00 0.08 0.08 98 1017.6
20260906111539 16 100 11.3 11.3 0.00 0.08 0.08 98 1017.6
20260906110619 16 86 8.0 8.0 0.00 0.08 0.08 98 1017.6
20260906110539 16 81 8.0 8.0 0.00 0.08 0.08 98 1017.6
20260906105541 16 98 9.7 12.9 0.00 0.08 0.08 98 1017.5
20260906105119 16 96 9.7 11.3 0.00 0.08 0.08 98 1017.5
20260906104540 16 80 4.8 4.8 0.00 0.08 0.08 98 1017.5
20260906103618 16 100 4.8 8.0 0.00 0.08 0.08 98 1017.3
20260906103540 16 100 4.8 8.0 0.00 0.08 0.08 98 1017.3
20260906102540 16 83 4.8 4.8 0.00 0.08 0.08 98 1017.2
20260906102119 16 104 8.0 11.3 0.00 0.08 0.08 98 1017.3
20260906101540 16 122 3.2 3.2 0.00 0.08 0.08 98 1017.3
20260906100620 16 124 3.2 4.8 0.00 0.08 0.08 98 1017.2
20260906100540 16 115 3.2 4.8 0.00 0.08 0.08 98 1017.2
20260906095539 16 94 8.0 11.3 0.00 0.08 0.08 98 1016.9
20260906095119 16 91 8.0 11.3 0.00 0.08 0.08 98 1016.9
20260906094540 16 94 9.7 12.9 0.00 0.08 0.08 98 1016.9
20260906093618 16 98 9.7 11.3 0.00 0.08 0.08 98 1016.9
20260906093540 16 103 9.7 11.3 0.00 0.08 0.08 98 1016.9
20260906092540 16 93 11.3 12.9 0.00 0.08 0.08 97 1016.9
20260906092120 16 85 8.0 9.7 0.00 0.08 0.08 97 1016.8
20260906091539 16 92 9.7 12.9 0.00 0.08 0.08 97 1016.8
20260906090619 16 96 12.9 12.9 0.00 0.08 0.08 97 1016.7
20260906090539 16 92 12.9 12.9 0.00 0.08 0.08 97 1016.8
20260906085539 17 93 8.0 8.0 0.00 0.08 0.08 97 1016.5
20260906085119 17 101 11.3 11.3 0.00 0.08 0.08 97 1016.5
20260906084539 16 101 12.9 12.9 0.00 0.08 0.08 97 1016.5
20260906083620 17 96 11.3 11.3 0.00 0.08 0.08 97 1016.7
20260906083540 17 98 12.9 11.3 0.00 0.08 0.08 97 1016.7
20260906082540 16 101 11.3 11.3 0.00 0.08 0.08 97 1016.9
20260906082118 16 98 8.0 11.3 0.00 0.08 0.08 97 1017.0
20260906081540 16 94 4.8 4.8 0.00 0.08 0.08 97 1017.2
20260906080619 16 83 8.0 8.0 0.00 0.08 0.08 97 1017.3
20260906080539 16 85 4.8 8.0 0.00 0.08 0.08 97 1017.3
20260906075539 16 49 4.8 4.8 0.00 0.08 0.08 97 1017.3
20260906075118 16 44 4.8 8.0 0.00 0.08 0.08 97 1017.4
20260906074540 16 50 8.0 9.7 0.00 0.08 0.08 97 1017.3
20260906073618 16 73 3.2 4.8 0.00 0.08 0.08 96 1017.2
20260906073540 16 73 3.2 4.8 0.00 0.08 0.08 96 1017.2
20260906072539 17 73 4.8 4.8 0.00 0.08 0.08 96 1017.1
20260906072119 17 96 4.8 4.8 0.00 0.08 0.08 96 1017.2
20260906071539 17 98 4.8 4.8 0.00 0.08 0.08 96 1017.2
20260906070619 17 103 4.8 8.0 0.00 0.08 0.08 96 1017.2
20260906070539 17 103 4.8 4.8 0.00 0.08 0.08 96 1017.2
20260906065540 17 101 4.8 4.8 0.00 0.08 0.08 96 1017.2
20260906065120 17 102 4.8 4.8 0.00 0.08 0.08 96 1017.1
20260906064539 17 98 4.8 8.0 0.00 0.08 0.08 96 1017.0
20260906063619 17 104 3.2 4.8 0.00 0.08 0.08 96 1017.0
20260906063539 17 104 3.2 3.2 0.00 0.08 0.08 96 1017.0
20260906062540 17 106 3.2 4.8 0.00 0.08 0.08 96 1016.9
20260906062119 17 109 3.2 4.8 0.00 0.08 0.08 96 1016.9
20260906061541 17 106 4.8 8.0 0.00 0.08 0.08 95 1016.8
20260906060620 17 106 8.0 8.0 0.00 0.08 0.08 95 1016.8
20260906060540 17 107 8.0 8.0 0.00 0.08 0.08 95 1016.8
20260906055540 17 103 9.7 11.3 0.00 0.08 0.08 95 1016.9
20260906055118 17 102 3.2 4.8 0.00 0.08 0.08 95 1017.0
20260906054540 17 96 4.8 8.0 0.00 0.08 0.08 95 1016.9
20260906053618 18 100 8.0 8.0 0.00 0.08 0.08 94 1016.9
20260906053540 18 97 8.0 11.3 0.00 0.08 0.08 94 1016.9
20260906052541 18 86 8.0 4.8 0.00 0.08 0.08 94 1016.9
20260906052119 18 82 4.8 8.0 0.00 0.08 0.08 94 1016.9
20260906051540 18 84 9.7 8.0 0.00 0.08 0.08 94 1016.9
20260906050618 18 91 12.9 14.5 0.00 0.08 0.08 94 1017.0
20260906050540 18 84 9.7 12.9 0.00 0.08 0.08 94 1017.0
20260906045539 18 97 16.1 14.5 0.00 0.08 0.08 93 1016.9
20260906045119 18 101 16.1 14.5 0.00 0.08 0.08 93 1016.8
20260906044541 18 96 16.1 14.5 0.00 0.08 0.08 93 1016.8
20260906043620 18 93 16.1 16.1 0.00 0.08 0.08 92 1016.9
20260906043540 18 90 16.1 16.1 0.00 0.08 0.08 92 1017.0
20260906042540 19 95 14.5 16.1 0.00 0.08 0.08 92 1017.0
20260906042118 19 100 12.9 16.1 0.00 0.08 0.08 92 1017.1
20260906041539 19 92 12.9 14.5 0.00 0.08 0.08 91 1017.2
20260906040619 19 83 8.0 9.7 0.00 0.08 0.08 91 1017.3
20260906040539 19 82 8.0 8.0 0.00 0.08 0.08 91 1017.3
20260906035541 19 92 11.3 12.9 0.00 0.08 0.08 91 1017.4
20260906035119 20 81 11.3 12.9 0.00 0.08 0.08 91 1017.4
20260906034540 20 84 9.7 12.9 0.00 0.08 0.08 90 1017.2
20260906033619 20 80 11.3 14.5 0.00 0.08 0.08 90 1017.1
20260906033539 20 84 11.3 12.9 0.00 0.08 0.08 90 1017.1
20260906032539 20 87 12.9 12.9 0.00 0.08 0.08 90 1017.1
20260906032119 20 93 14.5 14.5 0.00 0.08 0.08 90 1017.1
20260906031539 20 92 12.9 12.9 0.00 0.08 0.08 90 1017.0
20260906030620 20 99 12.9 14.5 0.00 0.08 0.08 90 1017.0
20260906030540 20 100 11.3 14.5 0.00 0.08 0.08 90 1017.0
20260906025541 20 90 11.3 12.9 0.00 0.08 0.08 90 1017.0
20260906025118 20 86 11.3 12.9 0.00 0.08 0.08 89 1017.0
20260906024540 20 99 8.0 12.9 0.00 0.08 0.08 89 1017.0
20260906023619 20 99 9.7 12.9 0.00 0.08 0.08 88 1017.1
20260906023539 20 99 8.0 11.3 0.00 0.08 0.08 88 1017.1
20260906022540 21 100 14.5 12.9 0.00 0.08 0.08 87 1017.1
20260906022118 21 94 9.7 11.3 0.00 0.08 0.08 86 1017.1
20260906021539 21 98 8.0 11.3 0.00 0.08 0.08 86 1017.2
20260906020620 21 116 3.2 4.8 0.00 0.08 0.08 86 1017.1
20260906020540 21 115 3.2 8.0 0.00 0.08 0.08 85 1017.0
20260906015541 21 133 8.0 11.3 0.00 0.08 0.08 85 1017.0
20260906015119 21 128 8.0 16.1 0.00 0.08 0.08 85 1016.8
20260906014539 21 108 4.8 8.0 0.00 0.08 0.08 85 1016.6
20260906013618 21 95 16.1 16.1 0.00 0.08 0.08 85 1016.5
20260906013540 21 98 16.1 16.1 0.00 0.08 0.08 85 1016.5
20260906012539 21 99 16.1 19.3 0.00 0.08 0.08 86 1016.4
20260906012119 21 94 12.9 14.5 0.00 0.08 0.08 85 1016.5
20260906011539 21 99 14.5 14.5 0.00 0.08 0.08 85 1016.5
20260906010619 22 102 12.9 14.5 0.00 0.08 0.08 83 1016.4
20260906010541 22 100 9.7 12.9 0.00 0.08 0.08 83 1016.4
20260906005540 22 120 3.2 4.8 0.00 0.08 0.08 82 1016.5
20260906005119 22 119 3.2 4.8 0.00 0.08 0.08 81 1016.3
20260906004541 22 93 9.7 12.9 0.00 0.08 0.08 80 1016.3
20260906003618 23 98 11.3 12.9 0.00 0.08 0.08 79 1016.0
20260906003540 23 92 11.3 12.9 0.00 0.08 0.08 79 1015.9
20260906002539 23 92 4.8 8.0 0.00 0.08 0.08 77 1015.8
20260906002119 23 94 4.8 8.0 0.00 0.08 0.08 76 1015.7
20260906001540 23 101 8.0 11.3 0.00 0.08 0.08 75 1015.6
20260906000618 24 104 1.6 3.2 0.00 0.08 0.08 74 1015.6
20260906000540 24 104 3.2 3.2 0.00 0.08 0.08 74 1015.6
20260905235541 25 108 4.8 8.0 0.00 0.08 0.08 72 1015.4
20260905235120 25 124 9.7 12.9 0.00 0.08 0.08 71 1015.1
20260905234539 25 110 8.0 11.3 0.00 0.08 0.08 70 1015.1
20260905233620 25 114 8.0 11.3 0.00 0.08 0.08 69 1015.3
20260905233539 25 114 8.0 11.3 0.00 0.08 0.08 69 1015.4
20260905232539 26 128 4.8 9.7 0.00 0.08 0.08 68 1015.5
20260905232119 26 113 4.8 4.8 0.00 0.08 0.08 68 1015.4
20260905231540 26 92 8.0 9.7 0.00 0.08 0.08 66 1015.3
20260905230619 26 122 4.8 11.3 0.00 0.08 0.08 65 1015.3
20260905230539 26 133 1.6 8.0 0.00 0.08 0.08 65 1015.3
20260905225539 26 133 4.8 4.8 0.00 0.08 0.08 65 1015.3
20260905225119 26 143 1.6 4.8 0.00 0.08 0.08 66 1015.3
20260905224541 26 147 4.8 9.7 0.00 0.08 0.08 66 1015.3
20260905223620 26 141 8.0 8.0 0.00 0.08 0.08 67 1015.2
20260905223540 26 131 4.8 14.5 0.00 0.08 0.08 66 1015.2
20260905222539 25 134 8.0 12.9 0.00 0.08 0.08 67 1015.1
20260905222119 25 115 12.9 19.3 0.00 0.08 0.08 67 1015.0
20260905221540 26 132 11.3 16.1 0.00 0.08 0.08 68 1015.1
20260905220619 26 108 12.9 25.7 0.00 0.08 0.08 67 1015.1
20260905220539 26 121 9.7 12.9 0.00 0.08 0.08 67 1015.1
20260905215540 26 122 14.5 19.3 0.00 0.10 0.08 67 1015.2
20260905215118 26 120 11.3 12.9 0.00 0.10 0.08 66 1015.2
20260905214540 26 130 9.7 14.5 0.00 0.10 0.08 68 1015.4
20260905213620 26 147 4.8 16.1 0.00 0.10 0.08 67 1015.7
20260905213540 26 159 4.8 11.3 0.00 0.10 0.08 68 1015.8
20260905212540 26 132 9.7 22.5 0.00 0.10 0.08 66 1015.8
20260905212119 26 130 16.1 19.3 0.00 0.10 0.08 67 1015.9
20260905211539 26 136 12.9 19.3 0.00 0.10 0.08 68 1015.8
20260905210618 25 150 9.7 12.9 0.00 0.10 0.08 68 1016.0
20260905210541 25 138 9.7 12.9 0.00 0.10 0.08 68 1016.0
20260905205539 25 145 11.3 19.3 0.00 0.10 0.08 68 1015.9